Back to catalog

STARLINK-34492

AliveCommunicationsVLEO
NORAD 64473·PAYLOAD·🇺🇸 United States

Launched Jun 23, 2025 from Cape Canaveral Space Force Station

Loading…

Next Passes (next 24 hours)

TLE

FreshSource: CelesTrak SupGP

Epoch: Sep 14, 2026, 21:34 UTC

1 64473C 25133B   26257.89909722  .00004126  00000+0  12192-3 0  2573
2 64473  53.1585 315.7643 0001268  87.1290  69.3180 15.34380208    18

Track STARLINK-34492 in real time with AllMySat

Download on the App Store